Printer-friendly version

IAU Minor Planet Center

Minor Planet Center

MPEC 2005-F13 : 2005 FE

The following Minor Planet Electronic Circular may be linked-to from your own Web pages, but must not otherwise be redistributed electronically.


Read MPEC 2005-F12 Read MPEC 2005-F14


M.P.E.C. 2005-F13                                Issued 2005 Mar. 17, 12:04 UT

     The Minor Planet Electronic Circulars contain information on unusual
         minor planets and routine data on comets.  They are published
   on behalf of Commission 20 of the International Astronomical Union by the
          Minor Planet Center, Smithsonian Astrophysical Observatory,
                          Cambridge, MA 02138, U.S.A.

                  Supported in part by the Brinson Foundation
             Prepared using the Tamkin Foundation Computer Network

                              MPC@CFA.HARVARD.EDU
          URL http://cfa-www.harvard.edu/iau/mpc.html  ISSN 1523-6714

                                    2005 FE

Observations:
     K05F00E* C2005 03 16.33095 11 56 58.97 +16 14 47.8          18.4 R EF013703
     K05F00E  C2005 03 16.34034 11 56 59.21 +16 14 36.8          18.2 R EF013703
     K05F00E  C2005 03 16.34991 11 56 59.38 +16 14 22.8          18.5 R EF013703
     K05F00E  C2005 03 16.35934 11 56 59.62 +16 14 11.2          18.9 R EF013703
     K05F00E  C2005 03 16.91072 11 57 21.12 +16 01 55.0          19.2 V EF013198
     K05F00E  C2005 03 16.91494 11 57 21.23 +16 01 49.8          19.3 V EF013198
     K05F00E  C2005 03 16.91565 11 57 21.25 +16 01 48.9          19.2 V EF013198
     K05F00E  C2005 03 16.91635 11 57 21.27 +16 01 48.0          19.3 V EF013198
     K05F00E  C2005 03 16.91846 11 57 21.33 +16 01 45.4          19.3 V EF013198
     K05F00E  C2005 03 16.92128 11 57 21.40 +16 01 41.8          19.3 V EF013198
     K05F00E  C2005 03 16.94957 11 57 22.12 +16 01 04.1          18.7 V EF013240
     K05F00E  C2005 03 16.95370 11 57 22.26 +16 00 58.5          19.0 V EF013240
     K05F00E  C2005 03 16.96197 11 57 22.52 +16 00 47.5          19.2 V EF013240
     K05F00E  C2005 03 16.96610 11 57 22.64 +16 00 42.3          18.7 V EF013240
     K05F00E  C2005 03 17.29753 11 57 34.90 +15 53 25.3          19.1 R EF013854
     K05F00E  C2005 03 17.30229 11 57 35.03 +15 53 18.7          19.1 R EF013854
     K05F00E  C2005 03 17.30703 11 57 35.17 +15 53 12.5          19.1 R EF013854

Observer details:
198 Wildberg.  Observer R. Apitzsch.  0.35-m f/4.2 reflector + CCD.
240 Herrenberg.  Observer H. Michels.  0.40-m f/5 reflector + CCD.
703 Catalina Sky Survey.  Observer R. Hill.  Measurers E. C. Beshore,
    C. M. Casey, E. J. Christensen, G. J. Garradd, R. E. Hill, S. M. Larson,
    R. H. McNaught.  0.68-m Schmidt + CCD.
854 Sabino Canyon Observatory, Tucson.  Observer J. E. McGaha.  0.36-m f/10.0
    Schmidt-Cassegrain + CCD.

Orbital elements:
2005 FE
Epoch 2005 Mar. 11.0 TT = JDT 2453440.5                 MPC
M 352.71572              (2000.0)            P               Q
n   0.26051285     Peri.  170.55941     -0.96505425     +0.25844736
a   2.4280071      Node    24.55098     -0.24671420     -0.84038176
e   0.4990879      Incl.    5.98232     -0.08833125     -0.47640683
P   3.78           H   20.9           G   0.15
From 17 observations 2005 Mar. 16-17.

Ephemeris:
2005 FE                  a,e,i = 2.43, 0.50, 6                   q = 1.2162
Date    TT    R. A. (2000) Decl.     Delta      r     Elong.  Phase     V
2005 03 11    11 53.75   +17 57.1    0.269    1.254   164.2    12.5    19.3
2005 03 21    11 59.91   +14 23.4    0.242    1.232   165.4    11.7    19.0
2005 03 31    12 07.08   +09 15.7    0.227    1.219   164.6    12.6    18.9
2005 04 10    12 16.34   +02 55.2    0.224    1.216   161.9    14.8    18.9
2005 04 20    12 28.52   -03 53.1    0.232    1.223   158.1    17.8    19.1
2005 04 30    12 43.63   -10 16.8    0.254    1.240   153.9    20.9    19.4
2005 05 10    13 01.07   -15 39.6    0.287    1.266   149.6    23.8    19.8
2005 05 20    13 20.30   -19 51.6    0.332    1.300   145.5    26.1    20.3
2005 05 30    13 40.64   -22 59.3    0.389    1.340   141.5    28.1    20.7
2005 06 09    14 01.55   -25 15.3    0.458    1.387   137.4    29.7    21.2
2005 06 19    14 22.82   -26 53.5    0.538    1.439   133.3    30.9    21.7

Timothy B. Spahr             (C) Copyright 2005 MPC           M.P.E.C. 2005-F13

Read MPEC 2005-F12 Read MPEC 2005-F14


Our Web policy. Index to the CBAT/MPC/ICQ pages.


Valid HTML 4.01!